Wind_Speed
18 18 19 19 20 21 24 25 27 26 27 27 28 29 29 29 29 27 26 27 30 32 34 34 36 36 37 38 40 40 41 41 42 44 44 45 45 47 48 48 48 47 48 47
18 19 20 20 21 23 24 25 26 26 26 26 27 27 27 28 28 28 27 27 29 30 31 32 33 34 36 37 38 38 38 39 41 42 42 43 45 45 46 46 46 47 48 48
20 20 20 20 21 22 23 24 24 25 25 25 25 25 24 25 27 28 28 29 30 30 31 33 34 34 35 37 37 38 38 39 39 39 40 41 44 45 46 46 46 46 47 47
23 23 23 22 22 23 24 24 24 24 25 25 25 24 25 25 26 27 29 29 29 30 31 33 33 33 34 36 36 37 37 38 39 38 38 39 41 43 44 46 47 47 47 46
25 26 25 24 24 24 24 24 24 24 25 25 25 25 25 25 26 27 27 28 28 29 29 30 31 33 33 35 36 36 36 37 37 37 37 38 41 42 43 45 46 46 46 47
25 27 27 26 25 25 25 25 25 26 26 28 28 27 26 26 26 27 27 27 26 26 27 29 31 32 32 33 35 36 36 37 38 38 37 37 39 41 42 44 45 45 45 46
25 27 27 27 27 27 27 26 26 27 28 28 28 27 27 26 27 27 27 27 27 26 27 28 29 31 32 33 34 35 36 37 38 38 39 39 39 39 40 41 42 43 43 43
27 27 27 28 28 28 28 28 28 29 29 28 28 28 27 27 26 27 27 28 28 28 28 29 30 31 32 33 33 34 34 35 36 37 37 37 37 38 38 39 39 40 41 42
27 28 28 28 28 28 29 29 29 29 30 30 30 29 28 27 26 27 27 28 29 29 29 29 30 31 32 32 32 32 32 33 34 35 35 36 36 37 37 38 37 38 39 40
28 28 28 28 29 29 29 30 30 30 30 30 30 29 28 28 27 27 28 28 28 28 28 29 29 30 30 31 33 33 33 33 33 33 34 34 34 35 36 37 37 37 38 38
28 29 29 29 30 30 30 31 31 31 31 31 30 29 29 29 29 29 29 28 28 28 28 28 28 28 29 30 31 32 33 34 33 34 34 34 34 34 35 36 37 38 38 39
28 28 29 29 30 30 31 31 31 31 31 31 31 31 31 30 29 29 29 28 28 28 28 28 28 28 28 29 31 32 33 33 33 34 34 34 34 35 35 35 36 37 37 37
29 29 29 29 29 30 31 31 31 31 31 31 31 31 30 29 29 28 28 28 28 28 29 29 29 29 28 29 30 31 31 31 32 33 34 34 34 34 35 35 36 36 36 36
29 29 29 29 29 30 30 30 30 31 31 31 30 30 30 29 28 27 27 27 28 29 29 29 29 29 29 29 30 30 30 30 31 32 33 34 34 35 34 35 35 35 35 35
29 29 29 30 30 30 30 30 30 30 31 31 30 30 29 28 27 27 26 26 27 28 28 28 29 29 29 29 30 30 30 30 30 31 32 32 33 33 33 34 34 34 34 34
29 29 29 30 30 30 29 29 29 29 30 30 29 29 28 28 27 26 25 26 26 26 27 27 27 28 28 28 28 29 29 29 29 30 30 30 31 32 32 33 33 33 33 34
30 29 29 30 30 29 29 29 29 29 29 29 28 27 27 26 26 26 25 26 26 26 26 26 26 26 27 27 27 28 28 29 29 29 29 30 30 31 31 32 32 33 33 33
29 29 29 29 29 29 29 28 28 28 28 27 26 25 24 24 24 25 25 25 24 24 24 24 24 24 25 26 26 27 27 28 28 28 28 28 29 30 30 31 31 31 31 32
28 29 29 29 29 28 28 28 28 28 27 26 25 24 23 23 23 23 23 23 23 23 23 23 22 22 23 23 24 25 25 26 26 26 26 27 28 28 28 29 29 30 30 31
28 28 28 29 29 28 28 28 28 27 26 25 24 23 22 22 22 22 22 22 22 21 21 21 21 21 21 22 23 23 24 24 24 24 25 25 26 26 27 27 28 29 29 31
26 27 28 28 28 28 27 27 27 26 25 24 23 22 22 21 21 21 21 21 21 21 21 20 20 20 20 21 22 22 23 23 24 24 24 24 25 25 26 26 27 28 28 29
26 26 27 27 27 27 26 26 25 25 24 23 22 22 21 21 21 20 20 20 20 20 20 20 20 20 20 20 21 21 21 22 23 24 24 24 24 25 25 25 26 26 27 28
25 25 26 26 26 26 25 25 24 23 23 22 21 21 21 21 21 20 21 20 20 20 20 20 20 20 20 20 21 21 21 22 22 22 23 24 24 25 25 25 25 25 26 26
24 24 24 24 25 25 24 23 23 22 21 21 21 20 20 20 20 20 20 20 20 19 19 19 19 20 21 21 21 21 21 22 22 22 23 23 23 23 24 24 24 24 24 25
23 23 23 24 24 23 23 22 22 21 20 20 20 20 20 20 20 20 20 20 20 19 19 19 20 20 20 20 21 21 22 22 22 22 22 22 22 23 23 23 23 23 23 23
23 23 23 23 23 22 22 22 22 21 20 20 20 20 20 20 19 19 19 19 19 19 19 19 20 20 21 21 21 21 21 21 22 22 22 21 21 21 21 22 22 22 22 21
23 23 23 22 22 22 22 22 21 21 20 19 19 19 20 20 20 19 19 19 19 19 19 19 20 20 20 20 20 21 21 21 21 20 20 20 20 20 21 21 21 20 20 19
Wind_Direction
294 296 293 290 286 283 283 285 287 289 290 289 288 288 285 281 277 274 271 267 264 261 257 255 254 252 253 253 252 250 250 250 251 251 252 252 253 253 252 252 254 256 258 260
295 294 295 294 291 288 289 290 291 292 294 292 290 288 285 280 278 273 270 267 263 260 256 254 254 253 252 252 251 250 250 251 253 254 255 255 254 253 252 253 254 257 260 262
293 294 294 295 297 296 293 293 293 293 293 292 289 287 285 279 275 271 269 267 265 261 257 256 255 255 254 252 252 253 253 253 255 257 256 255 255 254 254 255 255 257 261 262
291 293 293 295 296 296 295 295 295 294 293 294 292 289 286 282 277 274 271 270 268 265 260 258 257 257 256 254 255 256 255 255 256 256 256 256 255 256 256 256 257 258 259 261
294 294 294 294 296 295 295 295 294 294 293 295 295 293 288 285 281 278 274 271 270 267 262 259 259 259 258 255 256 256 256 256 256 258 258 257 257 258 258 259 260 260 261 262
297 295 295 295 294 293 293 293 293 294 294 294 295 292 290 287 285 281 275 272 270 268 264 261 261 261 258 257 257 256 257 256 256 257 259 259 258 259 260 261 261 261 262 264
297 297 298 297 295 293 293 294 293 293 294 294 295 294 292 289 287 282 277 272 270 270 268 266 263 261 261 259 258 258 259 259 258 257 259 260 260 260 261 262 262 262 263 265
300 299 300 300 298 296 294 293 293 293 293 294 293 293 292 290 288 283 278 274 273 272 271 268 266 264 263 260 259 259 259 260 259 258 258 260 260 260 261 261 262 263 264 264
301 301 301 300 300 297 295 294 294 293 293 292 292 291 289 288 286 284 280 277 276 274 272 269 269 268 266 262 260 261 262 261 260 259 260 261 261 261 260 261 262 264 266 266
301 301 300 300 300 298 296 295 295 296 295 292 290 290 288 286 285 284 281 279 277 275 273 272 271 270 269 267 263 262 262 263 261 260 260 260 260 261 262 262 262 263 266 267
300 300 299 298 297 296 295 295 295 296 295 292 289 288 287 285 284 283 282 280 277 275 272 271 270 268 267 267 266 263 262 261 260 260 261 262 262 263 264 264 264 265 266 268
300 299 298 297 296 295 295 295 295 295 293 290 288 287 286 285 284 283 281 280 277 275 273 271 269 268 268 266 265 264 263 261 259 260 261 262 263 264 265 264 265 266 268 269
299 299 298 297 297 297 296 295 296 295 293 291 289 288 286 285 283 283 282 279 277 275 273 272 270 269 269 268 266 265 264 262 260 260 261 262 263 264 264 264 265 266 268 269
298 298 297 297 297 298 298 298 297 296 294 293 290 287 285 283 282 282 283 281 279 277 275 273 270 269 269 269 268 267 266 265 264 264 263 264 264 265 265 266 267 268 269 270
296 296 297 298 299 299 299 299 298 297 296 294 291 289 286 284 282 283 282 282 281 279 277 274 272 271 270 269 268 268 268 268 267 266 265 264 265 266 266 267 268 269 270 271
294 295 296 298 300 300 300 299 299 298 296 295 293 291 287 284 283 283 283 281 280 279 277 276 275 273 272 271 270 268 268 268 268 268 268 267 267 268 268 269 269 269 270 271
292 293 295 298 300 301 300 300 299 299 297 295 294 292 289 286 285 284 282 281 280 278 278 277 278 276 273 272 270 269 269 269 269 269 269 269 270 271 271 271 271 271 271 272
290 291 294 298 299 300 300 299 299 300 300 298 295 293 291 289 287 285 282 281 281 281 280 278 278 277 275 273 272 271 270 270 270 270 270 270 271 273 274 273 272 272 273 273
290 292 294 296 299 300 301 301 300 300 300 298 295 294 293 291 290 288 286 283 282 281 280 279 278 278 278 278 276 275 273 272 271 271 271 272 273 273 274 275 274 273 273 273
292 293 295 297 298 300 301 301 300 299 299 298 296 294 293 291 290 290 289 287 285 283 281 280 280 280 280 279 279 277 276 274 273 274 275 275 275 275 276 276 276 275 274 275
293 294 296 297 298 299 300 300 299 298 297 297 295 294 293 291 291 291 290 289 288 285 282 280 280 281 282 281 281 280 278 277 276 277 277 278 277 277 278 278 278 278 277 277
293 296 298 298 299 299 299 298 297 297 297 296 294 292 292 291 291 290 289 288 288 287 285 283 283 284 285 284 282 281 280 279 279 280 279 279 279 279 281 282 281 281 280 279
295 298 300 301 301 300 299 298 297 297 296 295 293 291 291 291 291 289 288 289 288 287 287 286 286 287 288 286 283 281 281 281 281 281 282 282 281 281 281 282 282 282 282 281
295 298 300 302 302 301 299 298 297 295 294 294 294 294 293 291 291 290 289 288 288 286 286 287 288 288 289 288 285 283 283 284 284 284 284 283 283 283 282 282 283 284 284 283
295 298 299 300 302 301 299 298 296 294 293 293 294 294 294 293 293 293 291 289 288 287 286 286 287 289 290 289 287 286 286 286 285 285 286 285 284 283 283 283 283 284 285 284
293 296 298 300 301 301 300 299 297 295 293 292 292 293 294 294 293 293 292 290 288 287 286 287 288 289 289 288 288 288 289 288 286 285 285 285 285 284 285 285 285 285 286 286
292 294 297 299 301 301 302 301 299 297 294 292 293 294 296 295 294 292 291 291 290 288 288 289 291 292 291 289 288 289 289 288 286 285 285 285 285 286 287 287 287 287 288 288
Height
5634 5632 5631 5630 5629 5627 5626 5624 5623 5622 5620 5618 5615 5613 5611 5609 5608 5608 5608 5609 5609 5610 5611 5613 5615 5617 5619 5620 5622 5624 5627 5629 5630 5633 5635 5638 5640 5643 5646 5649 5652 5655 5657 5659
5631 5628 5626 5625 5624 5622 5620 5618 5616 5615 5614 5611 5609 5607 5605 5603 5602 5602 5602 5602 5602 5602 5603 5605 5606 5608 5610 5611 5613 5616 5618 5620 5621 5623 5625 5628 5630 5633 5635 5638 5640 5643 5645 5648
5626 5623 5621 5621 5619 5617 5615 5613 5611 5608 5608 5604 5602 5600 5599 5597 5596 5595 5595 5595 5595 5595 5596 5597 5598 5599 5601 5602 5604 5607 5609 5610 5612 5613 5615 5617 5620 5622 5625 5627 5629 5632 5634 5636
5620 5619 5617 5618 5614 5611 5609 5607 5604 5602 5600 5598 5596 5594 5592 5591 5590 5588 5588 5588 5588 5587 5588 5589 5590 5591 5592 5594 5596 5597 5599 5600 5602 5603 5605 5607 5609 5611 5613 5615 5618 5620 5622 5624
5614 5611 5610 5611 5608 5605 5603 5602 5599 5596 5594 5592 5590 5588 5587 5584 5583 5582 5581 5581 5580 5580 5580 5581 5582 5583 5584 5585 5586 5587 5589 5591 5592 5593 5595 5597 5599 5600 5602 5604 5606 5608 5610 5612
5607 5604 5604 5605 5601 5598 5597 5595 5593 5590 5588 5586 5583 5582 5581 5579 5576 5575 5574 5574 5573 5573 5573 5573 5574 5575 5576 5577 5578 5579 5580 5581 5583 5584 5586 5587 5588 5590 5592 5593 5595 5597 5598 5600
5601 5598 5597 5597 5594 5591 5591 5589 5586 5583 5581 5579 5577 5575 5574 5571 5569 5568 5567 5566 5566 5566 5565 5565 5566 5566 5567 5568 5569 5570 5571 5572 5573 5574 5576 5577 5579 5580 5581 5583 5584 5586 5587 5588
5596 5593 5593 5589 5586 5585 5583 5581 5578 5576 5574 5572 5570 5567 5566 5564 5562 5560 5560 5559 5558 5558 5558 5557 5557 5557 5558 5559 5560 5561 5561 5562 5563 5564 5566 5567 5568 5569 5570 5572 5573 5574 5575 5576
5591 5590 5586 5582 5579 5577 5575 5573 5570 5568 5566 5564 5562 5560 5558 5557 5555 5553 5552 5551 5551 5550 5549 5549 5548 5548 5548 5549 5550 5551 5551 5552 5553 5554 5555 5556 5558 5559 5560 5561 5562 5563 5564 5565
5584 5582 5579 5576 5572 5570 5567 5565 5563 5560 5558 5555 5553 5552 5550 5548 5547 5546 5545 5544 5543 5542 5541 5540 5540 5539 5539 5539 5540 5541 5542 5543 5543 5545 5546 5547 5547 5548 5549 5550 5552 5553 5553 5554
5576 5575 5572 5569 5565 5562 5560 5557 5555 5553 5550 5548 5545 5544 5542 5540 5539 5537 5536 5535 5534 5533 5532 5531 5531 5531 5531 5531 5531 5531 5532 5533 5534 5535 5536 5537 5537 5538 5539 5540 5540 5542 5542 5543
5570 5567 5564 5561 5558 5555 5552 5550 5547 5545 5542 5540 5537 5535 5534 5532 5530 5529 5528 5527 5526 5525 5524 5523 5522 5522 5522 5521 5521 5521 5522 5522 5523 5524 5526 5527 5527 5528 5528 5529 5530 5530 5531 5532
5561 5558 5555 5553 5550 5547 5544 5542 5539 5536 5534 5531 5529 5527 5525 5523 5522 5520 5519 5518 5517 5516 5515 5514 5514 5513 5513 5512 5512 5512 5512 5513 5513 5514 5516 5516 5517 5518 5519 5519 5519 5520 5520 5521
5554 5551 5548 5545 5542 5539 5536 5534 5531 5528 5525 5523 5520 5518 5516 5515 5513 5512 5510 5509 5508 5507 5506 5505 5505 5505 5504 5503 5503 5503 5504 5504 5504 5505 5506 5506 5507 5508 5509 5509 5510 5510 5510 5510
5546 5543 5540 5537 5534 5531 5528 5526 5523 5520 5517 5515 5512 5510 5508 5507 5505 5504 5502 5501 5499 5498 5497 5497 5496 5496 5495 5494 5494 5494 5495 5495 5495 5496 5496 5496 5497 5497 5498 5499 5499 5500 5500 5500
5537 5534 5532 5529 5527 5524 5521 5518 5515 5513 5509 5506 5504 5502 5500 5499 5497 5495 5494 5493 5492 5490 5489 5488 5487 5487 5486 5486 5485 5485 5486 5486 5486 5486 5486 5487 5487 5488 5488 5489 5489 5489 5490 5490
5529 5526 5524 5522 5519 5517 5514 5511 5508 5505 5502 5499 5496 5494 5492 5491 5489 5488 5486 5485 5484 5482 5481 5480 5479 5478 5477 5477 5477 5477 5477 5477 5477 5478 5478 5478 5478 5479 5479 5479 5479 5479 5479 5479
5520 5518 5516 5514 5512 5509 5506 5503 5500 5497 5494 5491 5489 5487 5485 5483 5482 5480 5479 5477 5476 5475 5473 5472 5471 5470 5469 5469 5469 5468 5469 5469 5469 5469 5469 5469 5469 5469 5469 5469 5469 5469 5469 5469
5512 5510 5508 5506 5503 5501 5498 5495 5492 5489 5487 5484 5482 5480 5478 5476 5475 5473 5471 5470 5469 5468 5466 5465 5464 5463 5462 5461 5461 5461 5461 5461 5461 5461 5461 5461 5461 5461 5460 5460 5460 5459 5459 5459
5504 5502 5500 5498 5495 5493 5490 5488 5485 5482 5480 5477 5475 5473 5472 5470 5468 5467 5465 5463 5462 5461 5460 5459 5458 5457 5456 5455 5454 5454 5454 5454 5453 5453 5453 5453 5453 5452 5452 5451 5451 5451 5450 5450
5496 5494 5492 5490 5488 5485 5482 5480 5477 5475 5472 5470 5468 5467 5465 5463 5462 5461 5459 5458 5456 5455 5454 5452 5451 5450 5449 5448 5448 5447 5447 5447 5447 5446 5446 5445 5445 5444 5444 5443 5442 5442 5441 5440
5488 5487 5484 5482 5480 5477 5475 5472 5469 5468 5465 5464 5462 5460 5459 5457 5456 5454 5453 5452 5450 5449 5448 5446 5445 5444 5443 5442 5442 5441 5440 5440 5440 5439 5439 5438 5437 5437 5436 5435 5434 5433 5432 5431
5481 5479 5477 5474 5472 5469 5467 5465 5463 5461 5459 5457 5455 5454 5452 5451 5450 5448 5447 5446 5444 5443 5442 5441 5439 5438 5437 5436 5436 5435 5434 5433 5433 5432 5431 5430 5430 5429 5428 5427 5426 5425 5424 5423
5473 5471 5469 5467 5464 5462 5460 5458 5456 5454 5453 5451 5449 5448 5446 5445 5444 5442 5441 5440 5438 5437 5436 5435 5434 5433 5431 5430 5429 5428 5427 5427 5426 5425 5424 5423 5422 5421 5420 5419 5418 5417 5416 5415
5466 5464 5462 5460 5458 5455 5453 5451 5449 5448 5446 5445 5443 5442 5440 5439 5438 5436 5435 5434 5432 5431 5430 5429 5428 5427 5425 5424 5423 5422 5421 5420 5419 5418 5417 5416 5415 5414 5413 5412 5410 5409 5408 5407
5459 5457 5455 5453 5451 5449 5447 5445 5443 5441 5440 5439 5437 5436 5435 5433 5432 5431 5429 5428 5427 5426 5425 5423 5422 5421 5419 5418 5417 5416 5414 5413 5412 5411 5410 5409 5408 5407 5406 5405 5403 5402 5401 5400
5452 5450 5449 5447 5445 5442 5440 5438 5436 5435 5433 5432 5431 5430 5429 5427 5426 5425 5424 5422 5421 5420 5419 5418 5416 5415 5414 5412 5411 5410 5408 5407 5406 5405 5404 5403 5402 5400 5399 5398 5397 5396 5395 5393